JY1SAT (JO-97) (43803 NORAD) Tracking and Keplerian Element Data

This shows tracking and keplerian element data for the satellite.

Feedback or suggestion? Click here.




ElementValue
Catalog43803
NameJY1SAT (JO-97)
Epoch Orbit32042
Epoch Day286.73074071
Epoch Year2024
RAAN342.983
Inclination97.5059
Eccentricity0.0007858
Argument of Perigee255.526
Mean Anonmoly104.5099
Mean Motion15.11471501
Decay Rate0.00022084
L11 43803U 18099AX 24286.73074071 .00022084 00000+0 13051-2 0 9993
L22 43803 97.5059 342.9830 0007858 255.5260 104.5099 15.11471501320422



Live tracking and technical data element details for JY1SAT (JO-97) (NORAD 43803). JY1SAT (JO-97) can be tracked NOW for your location showing map with azimuth and elevation plus other details from your city location.







IsCatalogInMostPopularTable: catalog: 43803, numindb: 441
Update: records affected: 1



GetName: 43803 JY1SAT (JO-97)

Hit Count: updated at: Thu, 23 Jan 2025 17:39:07 GMT